Other Public Products
Issued by NWS Charleston, SC

Current Version | Previous Version | Text Only | Print | Product List | Glossary Off
Versions: 1 2 3 4 5 6 7 8 9 10 11 12 13 14 15 16 17 18 19 20 21 22 23 24 25 26 27 28 29 30 31 32 33 34 35 36 37 38 39 40 41 42 43 44 45 46 47 48 49 50
000 FPUS82 KCHS 121727 OPUCHS TEST...KCHS/KSAV Gateway Observations...TEST National Weather Service Charleston SC 1200 PM EST TUE DEC 12 2017 NOTE: "fair" indicates few or no clouds below 12,000 feet with no significant weather and/or obstructions to visibility. SCZ050-WAZ558-NCZ071-TXZ119-213-PAZ071-DCZ001-FLZ074-172-MI076- NYZ176-178-MAZ016-IL014-TNZ027-NJZ106-GAZ044-MD014-121800- ...Gateway Observations for Charleston International... CITY SKY/WX TMP DP RH WIND PRES REMARKS Chas Airport MOSUNNY 62 44 51 W10 29.74F Seattle CLOUDY 41 31 67 CALM 30.47S Charlotte MOSUNNY 54 31 41 NW17G26 29.71F Dallas DFW SUNNY 51 28 41 N15 30.43R Dallas Love SUNNY 50 28 42 N12 30.44R Philladelphia CLOUDY 45 35 68 SW12 29.52F Wash National CLOUDY 46 33 60 SW7 29.56F Baltimore CLOUDY 45 32 60 W8 29.53F Miami MOSUNNY 69 49 48 W5 30.07F Detroit LGT SNOW 20 8 60 NW16G24 29.86S WCI 6 Newark CLOUDY 47 37 68 SW13 29.50F Laguardia CLOUDY 51 38 60 SW18G26 29.48F J F K CLOUDY 52 43 71 S20G26 29.50F Boston Logan CLOUDY 42 38 85 SE10 29.60F Ft. Lauderdale MOSUNNY 68 50 52 NW12G21 30.05F Chicago O`Hare MOSUNNY 20 7 57 NW17 30.09S WCI 5 Chicago Midway MOSUNNY 21 8 57 N18G25 30.10S WCI 6 Houston Bush MOSUNNY 60 31 33 N15G25 30.33S Houston Hobby SUNNY 59 32 36 N20 30.32S Nashville PTSUNNY 40 21 46 N13G25 30.10S WCI 32 Atlanta PTSUNNY 49 33 54 NW24G30 29.94R $$ GAZ044-118-TXZ119-213-NCZ071-DCZ001-MDZ014-506-PAZ021-071-NJZ106- NYZ176-178-MAZ106-OHZ011-021-055-MIZ076-KYZ091-ILZ014-INZ047- MNZ060-ONZ431-121800- ...Gateway Observations for Savannah International... CITY SKY/WX TMP DP RH WIND PRES REMARKS Savannah Arpt MOSUNNY 62 43 49 W18 29.80F Atlanta PTSUNNY 49 33 54 NW24G30 29.94R Charlotte MOSUNNY 54 31 41 NW17G26 29.71F Dallas DFW SUNNY 51 28 41 N15 30.43R Houston Bush MOSUNNY 60 31 33 N15G25 30.33S Wash National CLOUDY 46 33 60 SW7 29.56F Wash Dulles CLOUDY 42 33 70 W3 29.55F Baltimore CLOUDY 45 32 60 W8 29.53F Philadelphia CLOUDY 45 35 68 SW12 29.52F Newark CLOUDY 47 37 68 SW13 29.50F Laguardia CLOUDY 51 38 60 SW18G26 29.48F J F K CLOUDY 52 43 71 S20G26 29.50F Boston CLOUDY 42 38 85 SE10 29.60F Pittsburg LGT SNOW 29 22 75 NW22 29.67S VSB 1 WCI 15 Akron FLURRIES 23 10 57 NW21G35 29.75R WCI 8 Cleveland CLOUDY 22 10 60 NW18G29 29.82F WCI 7 Cincinnati PTSUNNY 30 20 66 NW18 29.95F WCI 18 Columbus MOSUNNY 28 7 41 NW22G31 29.87F WCI 14 Detroit LGT SNOW 20 8 60 NW16G24 29.86S WCI 6 Chicago O`Hare MOSUNNY 20 7 57 NW17 30.09S WCI 5 Minneapolis CLOUDY 14 6 70 CALM 30.15F Indianapolis MOSUNNY 26 10 50 NW17G28 30.05S WCI 13 Toronto Canada PTSUNNY 25 12 58 W21G29 29.55R WCI 10 $$

USA.gov is the U.S. government's official web portal to all federal, state and local government web resources and services.